• In Czech Republic
  • List of Countries
  • For 7 days
  • Water Temperature
  • Satellite Maps
  • Weather Map
  • Weather Widgets
  • user-avatar
    Login

    Hourly Weather Matca

    Today, 19 September, Wednesday

    Time Temperature Precipitation Wind Pressure Humidity
    00:00 +17°C° 0 mm 2 mps 761 mmHg 63%
    01:00 +16°C° 0 mm 2 mps 761 mmHg 65%
    02:00 +16°C° 0 mm 2 mps 761 mmHg 65%
    03:00 +16°C° 0 mm 2 mps 761 mmHg 66%
    04:00 +15°C° 0 mm 2 mps 761 mmHg 67%
    05:00 +15°C° 0 mm 2 mps 761 mmHg 68%
    06:00 +17°C° 0 mm 2 mps 761 mmHg 63%
    07:00 +19°C° 0 mm 1 mps 761 mmHg 57%
    08:00 +21°C° 0 mm 1 mps 761 mmHg 52%
    09:00 +23°C° 0 mm 2 mps 761 mmHg 46%
    10:00 +24°C° 0 mm 3 mps 761 mmHg 40%
    11:00 +26°C° 0 mm 3 mps 761 mmHg 34%
    12:00 +27°C° 0 mm 3 mps 761 mmHg 32%
    13:00 +28°C° 0 mm 3 mps 761 mmHg 30%
    14:00 +29°C° 0 mm 3 mps 760 mmHg 27%
    15:00 +28°C° 0 mm 3 mps 760 mmHg 28%
    16:00 +28°C° 0 mm 3 mps 760 mmHg 29%
    17:00 +28°C° 0 mm 3 mps 760 mmHg 30%
    18:00 +25°C° 0 mm 2 mps 760 mmHg 34%
    19:00 +23°C° 0 mm 2 mps 760 mmHg 39%
    20:00 +20°C° 0 mm 2 mps 760 mmHg 43%
    21:00 +19°C° 0 mm 2 mps 760 mmHg 47%
    22:00 +18°C° 0 mm 2 mps 760 mmHg 51%
    23:00 +18°C° 0 mm 2 mps 761 mmHg 55%

    Tomorrow, 20 September, Thursday

    Time Temperature Precipitation Wind Pressure Humidity
    00:00 +17°C° 0 mm 2 mps 760 mmHg 57%
    01:00 +18°C° 0 mm 1 mps 760 mmHg 59%
    02:00 +16°C° 0 mm 1 mps 760 mmHg 62%
    03:00 +16°C° 0 mm 1 mps 760 mmHg 63%
    04:00 +16°C° 0 mm 1 mps 760 mmHg 64%
    05:00 +15°C° 0 mm 1 mps 760 mmHg 64%
    06:00 +18°C° 0 mm 1 mps 760 mmHg 60%
    07:00 +19°C° 0 mm 1 mps 760 mmHg 55%
    08:00 +21°C° 0 mm 1 mps 760 mmHg 50%
    09:00 +23°C° 0 mm 1 mps 760 mmHg 44%
    10:00 +25°C° 0 mm 2 mps 760 mmHg 38%
    11:00 +27°C° 0 mm 2 mps 760 mmHg 31%
    12:00 +28°C° 0 mm 2 mps 760 mmHg 29%
    13:00 +29°C° 0 mm 2 mps 759 mmHg 27%
    14:00 +30°C° 0 mm 2 mps 759 mmHg 25%
    15:00 +30°C° 0 mm 2 mps 759 mmHg 26%
    16:00 +29°C° 0 mm 2 mps 759 mmHg 28%
    17:00 +29°C° 0 mm 1 mps 758 mmHg 29%
    18:00 +27°C° 0 mm 1 mps 758 mmHg 33%
    19:00 +25°C° 0 mm 1 mps 759 mmHg 37%
    20:00 +22°C° 0 mm 1 mps 759 mmHg 41%
    21:00 +22°C° 0 mm 1 mps 759 mmHg 44%
    22:00 +21°C° 0 mm 1 mps 759 mmHg 47%
    23:00 +20°C° 0 mm 1 mps 759 mmHg 50%

    Day after tomorrow, 21 September, Friday

    Time Temperature Precipitation Wind Pressure Humidity
    00:00 +20°C° 0 mm 1 mps 759 mmHg 51%
    01:00 +20°C° 0 mm 1 mps 759 mmHg 53%
    02:00 +19°C° 0 mm 1 mps 759 mmHg 54%
    03:00 +19°C° 0 mm 1 mps 759 mmHg 54%
    04:00 +19°C° 0 mm 1 mps 759 mmHg 55%
    05:00 +18°C° 0 mm 1 mps 759 mmHg 55%
    06:00 +20°C° 0 mm 1 mps 759 mmHg 52%
    07:00 +21°C° 0 mm 1 mps 759 mmHg 48%
    08:00 +23°C° 0 mm 1 mps 759 mmHg 45%
    09:00 +25°C° 0 mm 1 mps 759 mmHg 40%
    10:00 +27°C° 0 mm 2 mps 759 mmHg 36%
    11:00 +29°C° 0 mm 2 mps 759 mmHg 31%
    12:00 +29°C° 0 mm 2 mps 759 mmHg 29%
    13:00 +30°C° 0 mm 2 mps 758 mmHg 27%
    14:00 +31°C° 0 mm 3 mps 758 mmHg 25%
    15:00 +31°C° 0 mm 2 mps 758 mmHg 27%
    16:00 +30°C° 0 mm 2 mps 757 mmHg 28%
    17:00 +30°C° 0 mm 2 mps 757 mmHg 29%
    18:00 +28°C° 0 mm 2 mps 757 mmHg 33%
    19:00 +26°C° 0 mm 2 mps 758 mmHg 37%
    20:00 +23°C° 0 mm 2 mps 758 mmHg 41%
    21:00 +23°C° 0 mm 2 mps 758 mmHg 44%
    22:00 +21°C° 0 mm 2 mps 758 mmHg 47%
    23:00 +20°C° 0 mm 2 mps 758 mmHg 50%

    22 September, Saturday

    Time Temperature Precipitation Wind Pressure Humidity
    00:00 +19°C° 0 mm 2 mps 758 mmHg 51%
    01:00 +20°C° 0 mm 1 mps 758 mmHg 53%
    02:00 +20°C° 0 mm 1 mps 758 mmHg 55%
    03:00 +19°C° 0 mm 1 mps 758 mmHg 56%
    04:00 +19°C° 0 mm 1 mps 758 mmHg 57%
    05:00 +19°C° 0 mm 1 mps 757 mmHg 58%
    06:00 +20°C° 0 mm 1 mps 757 mmHg 55%
    07:00 +21°C° 0 mm 1 mps 757 mmHg 52%
    08:00 +23°C° 0 mm 1 mps 757 mmHg 48%
    09:00 +25°C° 0 mm 2 mps 757 mmHg 43%
    10:00 +27°C° 0 mm 3 mps 757 mmHg 37%
    11:00 +29°C° 0 mm 3 mps 757 mmHg 31%
    12:00 +30°C° 0 mm 3 mps 757 mmHg 29%
    13:00 +32°C° 0 mm 4 mps 756 mmHg 26%
    14:00 +33°C° 0 mm 4 mps 756 mmHg 24%
    15:00 +32°C° 0 mm 4 mps 755 mmHg 25%
    16:00 +31°C° 0 mm 3 mps 755 mmHg 26%
    17:00 +30°C° 0 mm 3 mps 755 mmHg 27%
    18:00 +28°C° 0 mm 3 mps 755 mmHg 31%
    19:00 +26°C° 0 mm 3 mps 755 mmHg 35%
    20:00 +24°C° 0 mm 3 mps 755 mmHg 39%
    21:00 +24°C° 0 mm 3 mps 755 mmHg 41%
    22:00 +22°C° 0 mm 3 mps 755 mmHg 44%
    23:00 +22°C° 0 mm 3 mps 755 mmHg 47%

    23 September, Sunday

    Time Temperature Precipitation Wind Pressure Humidity
    00:00 +21°C° 0 mm 3 mps 755 mmHg 51%
    01:00 +20°C° 0 mm 2 mps 755 mmHg 54%
    02:00 +20°C° 0 mm 2 mps 755 mmHg 57%
    03:00 +19°C° 0.1 mm 4 mps 756 mmHg 60%
    04:00 +17°C° 0.1 mm 5 mps 756 mmHg 63%
    05:00 +16°C° 0.1 mm 7 mps 756 mmHg 65%
    06:00 +15°C° 0.7 mm 7 mps 757 mmHg 70%
    07:00 +14°C° 0.7 mm 7 mps 758 mmHg 74%
    08:00 +12°C° 0.7 mm 7 mps 758 mmHg 78%
    09:00 +14°C° 0.1 mm 7 mps 759 mmHg 70%
    10:00 +15°C° 0.1 mm 7 mps 759 mmHg 62%
    11:00 +17°C° 0.1 mm 7 mps 760 mmHg 53%
    12:00 +18°C° 0 mm 7 mps 760 mmHg 47%
    13:00 +20°C° 0 mm 6 mps 759 mmHg 41%
    14:00 +21°C° 0 mm 6 mps 759 mmHg 36%
    15:00 +21°C° 0 mm 5 mps 759 mmHg 35%
    16:00 +21°C° 0 mm 4 mps 759 mmHg 34%
    17:00 +20°C° 0 mm 4 mps 759 mmHg 33%
    18:00 +19°C° 0 mm 3 mps 759 mmHg 37%
    19:00 +17°C° 0 mm 2 mps 760 mmHg 40%
    20:00 +16°C° 0 mm 1 mps 760 mmHg 43%
    21:00 +15°C° 0 mm 1 mps 760 mmHg 45%
    22:00 +15°C° 0 mm 1 mps 760 mmHg 46%
    23:00 +14°C° 0 mm 1 mps 760 mmHg 48%

    24 September, Monday

    Time Temperature Precipitation Wind Pressure Humidity
    00:00 +14°C° 0 mm 1 mps 759 mmHg 49%
    01:00 +13°C° 0 mm 2 mps 759 mmHg 50%
    02:00 +13°C° 0 mm 2 mps 758 mmHg 51%
    03:00 +12°C° 0 mm 3 mps 758 mmHg 52%
    04:00 +12°C° 0 mm 3 mps 757 mmHg 52%
    05:00 +12°C° 0 mm 3 mps 757 mmHg 53%
    06:00 +13°C° 0 mm 5 mps 756 mmHg 50%
    07:00 +15°C° 0 mm 6 mps 755 mmHg 48%
    08:00 +16°C° 0 mm 7 mps 755 mmHg 46%
    09:00 +18°C° 0 mm 8 mps 754 mmHg 45%
    10:00 +21°C° 0 mm 8 mps 754 mmHg 43%
    11:00 +23°C° 0 mm 9 mps 753 mmHg 42%
    12:00 +26°C° 0 mm 9 mps 752 mmHg 40%
    13:00 +27°C° 0 mm 9 mps 751 mmHg 37%
    14:00 +29°C° 0 mm 9 mps 750 mmHg 35%
    15:00 +29°C° 0 mm 8 mps 750 mmHg 36%
    16:00 +28°C° 0 mm 8 mps 750 mmHg 37%
    17:00 +28°C° 0 mm 7 mps 749 mmHg 39%
    18:00 +26°C° 0 mm 7 mps 750 mmHg 43%
    19:00 +22°C° 0 mm 7 mps 750 mmHg 47%
    20:00 +20°C° 0 mm 7 mps 751 mmHg 51%
    21:00 +18°C° 0 mm 8 mps 752 mmHg 50%
    22:00 +17°C° 0 mm 8 mps 752 mmHg 50%
    23:00 +17°C° 0 mm 8 mps 753 mmHg 50%
    Show more